Weather History for KCNO - October, 2011

Change the Weather History Date:

Sunday, October 16, 2011

  Actual Average Record
Temperature  
Mean Temperature 70 °F -  
Max Temperature 87 °F 80 °F 97 °F (2012)
Min Temperature 53 °F 48 °F 41 °F (1996)
Cooling Degree Days 4    
Growing Degree Days 20 (Base 50)    
Moisture  
Dew Point 55 °F    
Average Humidity 78    
Maximum Humidity 100    
Minimum Humidity 36    
Precipitation  
Precipitation 0.00 in - - ()
Sea Level Pressure  
Sea Level Pressure 30.00 in    
Wind  
Wind Speed 2 mph (West)    
Max Wind Speed 12 mph    
Max Gust Speed -    
Visibility 4 miles    
Events Fog    
Averages and records for this station are not official NWS values.
T = Trace of Precipitation, MM = Missing Value Source: NWS Daily Summary

Daily Weather History Graph

Daily Weather History Graph

Search for Another Location

Airport or City:

Trip Planner

Search our weather history database for the weather conditions in past years. The results will help you decide how hot, cold, wet, or windy it might be!

Date:

Astronomy

Oct. 16, 2011 Rise Set
Actual Time 6:56 AM PDT 6:15 PM PDT
Civil Twilight 6:31 AM PDT 6:40 PM PDT
Nautical Twilight 6:01 AM PDT 7:09 PM PDT
Astronomical Twilight 5:33 AM PDT 7:38 PM PDT
Moon 9:16 PM PDT (10/16) 11:05 AM PDT (10/16)
Length of Visible Light 12h 09m
Length of Day
11h 19m
Waning Gibbous, 81% of the Moon is Illuminated
Oct 16
Waning Gibbous
Oct 19
Last Quarter
Oct 26
New
Nov 2
First Quarter
Nov 10
Full

Hourly Weather History & Observations

Time (PDT) Temp. Heat Index Dew Point Humidity Pressure Visibility Wind Dir Wind Speed Gust Speed Precip Events Conditions
2:53 AM 57.0 °F - 55.0 °F 93% 29.97 in 3.0 mi Calm Calm - N/A   Clear
3:22 AM 57.2 °F - 55.4 °F 94% 29.99 in 2.0 mi Calm Calm - N/A   Clear
3:38 AM 57.2 °F - 55.4 °F 94% 29.98 in 3.0 mi Calm Calm - N/A   Clear
4:35 AM 55.4 °F - 53.6 °F 94% 29.99 in 1.0 mi Calm Calm - N/A   Clear
4:38 AM 53.6 °F - 53.6 °F 100% 29.99 in 0.5 mi Calm Calm - N/A Fog Fog
4:53 AM 54.0 °F - 53.1 °F 97% 29.98 in 0.2 mi Calm Calm - N/A Fog Fog
5:22 AM 53.6 °F - 53.6 °F 100% 30.00 in 0.8 mi Calm Calm - N/A   Mist
5:31 AM 53.6 °F - 53.6 °F 100% 30.00 in 0.2 mi Calm Calm - N/A Fog Fog
5:44 AM 53.6 °F - 51.8 °F 94% 30.00 in 1.0 mi Calm Calm - N/A   Mist
5:49 AM 53.6 °F - 53.6 °F 100% 30.00 in 0.5 mi Calm Calm - N/A Fog Fog
5:53 AM 54.0 °F - 53.1 °F 97% 29.99 in 0.2 mi Calm Calm - N/A Fog Fog
6:45 AM 53.6 °F - 53.6 °F 100% 30.02 in 1.0 mi North - - N/A   Clear
6:53 AM 54.0 °F - 53.1 °F 97% 30.01 in 1.0 mi Calm Calm - N/A   Clear
7:53 AM 55.9 °F - 55.0 °F 97% 30.02 in 1.2 mi Calm Calm - N/A   Clear
8:19 AM 57.2 °F - 57.2 °F 100% 30.04 in 2.0 mi Calm Calm - N/A   Clear
8:53 AM 63.0 °F - 57.9 °F 84% 30.04 in 3.0 mi Calm Calm - N/A   Haze
9:53 AM 68.0 °F - 59.0 °F 73% 30.03 in 3.0 mi Calm Calm - N/A   Haze
10:53 AM 72.0 °F - 60.1 °F 66% 30.03 in 3.0 mi Calm Calm - N/A   Haze
11:53 AM 78.1 °F - 59.0 °F 52% 30.01 in 3.0 mi Calm Calm - N/A   Haze
12:53 PM 82.9 °F 82.6 °F 57.9 °F 42% 29.99 in 3.0 mi Variable 3.5 mph - N/A   Haze
1:53 PM 86.0 °F 84.7 °F 55.9 °F 36% 29.96 in 10.0 mi West 6.9 mph - N/A   Clear
2:53 PM 84.9 °F 83.7 °F 55.9 °F 37% 29.96 in 10.0 mi WSW 11.5 mph - N/A   Clear
3:53 PM 84.9 °F 83.9 °F 57.0 °F 38% 29.95 in 10.0 mi WSW 11.5 mph - N/A   Clear
4:53 PM 81.0 °F 81.1 °F 57.9 °F 45% 29.95 in 10.0 mi West 11.5 mph - N/A   Clear
5:53 PM 75.9 °F - 59.0 °F 56% 29.96 in 10.0 mi West 9.2 mph - N/A   Clear
6:53 PM 69.1 °F - 57.0 °F 65% 29.98 in 10.0 mi West 9.2 mph - N/A   Clear
7:53 PM 64.9 °F - 55.9 °F 73% 30.00 in 9.0 mi West 8.1 mph - N/A   Clear
8:53 PM 64.0 °F - 55.0 °F 73% 30.02 in 8.0 mi NW 5.8 mph - N/A   Clear
9:53 PM 64.0 °F - 54.0 °F 70% 30.03 in 8.0 mi Calm Calm - N/A   Clear
10:53 PM 62.1 °F - 54.0 °F 75% 30.04 in 7.0 mi Calm Calm - N/A   Clear
11:53 PM 57.9 °F - 53.1 °F 84% 30.03 in 6.0 mi Calm Calm - N/A   Haze